EW7736 Weather Reports


Display with metric or nautical units.
time (UTC)temp
F
wind
direction
speed
MPH
gust
MPH
rain 1hr
in
rain 24hr
in
rain mn
in
humidity
%
barometer
mb
20260902164845 88 100 1.0 4.0 0.00 0.00 0.00 67 1018.1
20260902163853 88 96 1.0 6.0 0.00 0.00 0.00 69 1018.2
20260902162907 88 102 1.0 6.0 0.00 0.00 0.00 68 1018.2
20260902161901 87 104 1.0 5.0 0.00 0.00 0.00 69 1018.4
20260902160827 87 111 1.0 3.0 0.00 0.00 0.00 69 1018.4
20260902154732 86 100 0.0 4.0 0.00 0.00 0.00 70 1018.4
20260902153751 86 110 1.0 6.0 0.00 0.00 0.00 71 1018.6
20260902152719 85 58 0.0 6.0 0.00 0.00 0.00 72 1018.7
20260902145425 83 27 1.0 5.0 0.00 0.00 0.00 73 1018.6
20260902144415 82 86 1.0 5.0 0.00 0.00 0.00 74 1018.5
20260902143439 82 101 1.0 5.0 0.00 0.00 0.00 74 1018.5
20260902142411 82 103 1.0 5.0 0.00 0.00 0.00 74 1018.5
20260902141430 81 97 1.0 5.0 0.00 0.00 0.00 75 1018.4
20260902135358 80 53 1.0 4.0 0.00 0.00 0.00 75 1018.0
20260902134359 80 91 2.0 8.0 0.00 0.00 0.00 75 1018.1
20260902133336 79 69 1.0 8.0 0.00 0.00 0.00 74 1018.1
20260902131253 78 57 1.0 5.0 0.00 0.00 0.00 73 1018.1
20260902130316 78 51 1.0 5.0 0.00 0.00 0.00 72 1018.2
20260902124139 77 48 2.0 7.0 0.00 0.00 0.00 69 1018.4
20260902123145 76 59 1.0 5.0 0.00 0.00 0.00 64 1018.3
20260902121024 74 49 0.0 4.0 0.00 0.00 0.00 49 1018.1
20260902120006 74 53 0.0 5.0 0.00 0.00 0.00 44 1017.9
20260902114954 74 45 0.0 5.0 0.00 0.00 0.00 38 1017.9
20260902113922 73 50 0.0 0.0 0.00 0.00 0.00 35 1017.9
20260902112941 73 50 0.0 0.0 0.00 0.00 0.00 33 1017.9
20260902110844 73 49 0.0 0.0 0.00 0.00 0.00 31 1017.6
20260902105900 73 49 0.0 0.0 0.00 0.00 0.00 32 1017.6
20260902104909 73 49 0.0 1.0 0.00 0.00 0.00 34 1017.6
20260902103917 73 49 0.0 1.0 0.00 0.00 0.00 35 1017.6
20260902102924 73 50 0.0 2.0 0.00 0.00 0.00 36 1017.6
20260902101945 73 54 0.0 1.0 0.00 0.00 0.00 37 1017.6
20260902100932 73 53 0.0 2.0 0.00 0.00 0.00 41 1017.6
20260902094723 74 55 0.0 1.0 0.00 0.00 0.00 44 1017.9
20260902093732 74 55 0.0 0.0 0.00 0.00 0.00 45 1017.8
20260902092732 74 55 0.0 3.0 0.00 0.00 0.00 42 1017.9
20260902091708 73 53 0.0 3.0 0.00 0.00 0.00 38 1017.9
20260902090712 73 48 0.0 0.0 0.00 0.00 0.00 33 1017.9
20260902085731 73 48 0.0 0.0 0.00 0.00 0.00 31 1017.8
20260902084742 73 48 0.0 0.0 0.00 0.00 0.00 31 1017.8
20260902083709 73 48 1.0 3.0 0.00 0.00 0.00 29 1017.7
20260902082726 73 47 1.0 3.0 0.00 0.00 0.00 27 1017.7
20260902081729 72 62 2.0 3.0 0.00 0.00 0.00 27 1017.6
20260902080735 72 53 0.0 3.0 0.00 0.00 0.00 31 1017.6
20260902075753 73 58 0.0 2.0 0.00 0.00 0.00 33 1017.6
20260902074723 73 57 0.0 0.0 0.00 0.00 0.00 37 1017.6
20260902073651 73 57 0.0 3.0 0.00 0.00 0.00 40 1017.6
20260902072716 73 49 0.0 0.0 0.00 0.00 0.00 39 1017.7
20260902071705 73 47 0.0 0.0 0.00 0.00 0.00 40 1017.6
20260902070655 73 53 0.0 0.0 0.00 0.00 0.00 41 1017.7
20260902064605 73 53 0.0 0.0 0.00 0.00 0.00 48 1017.6
20260902062415 73 53 0.0 0.0 0.00 0.00 0.00 52 1017.7
20260902061404 73 53 0.0 0.0 0.00 0.00 0.00 52 1017.6
20260902060349 73 53 0.0 0.0 0.00 0.00 0.00 52 1017.7
20260902055333 73 53 0.0 0.0 0.00 0.00 0.00 53 1017.6
20260902054314 73 53 0.0 0.0 0.00 0.00 0.00 56 1017.5
20260902053320 73 53 0.0 0.0 0.00 0.00 0.00 58 1017.6
20260902052256 73 53 0.0 0.0 0.00 0.00 0.00 60 1017.6
20260902051312 73 53 0.0 0.0 0.00 0.00 0.00 61 1017.5
20260902050334 74 53 0.0 0.0 0.00 0.00 0.00 63 1017.5
20260902045327 74 53 0.0 0.0 0.00 0.00 0.00 64 1017.5
20260902044342 74 53 0.0 0.0 0.00 0.00 0.00 64 1017.5
20260902043348 74 53 0.0 0.0 0.00 0.00 0.00 64 1017.4
20260902042316 74 53 0.0 0.0 0.00 0.00 0.00 65 1017.3
20260902041333 74 53 0.0 0.0 0.00 0.00 0.00 66 1017.1
20260902040310 74 53 0.0 0.0 0.00 0.00 0.00 67 1017.0
20260902034149 74 53 0.0 0.0 0.00 0.00 0.00 68 1017.0
20260902033208 74 52 0.0 0.0 0.00 0.00 0.00 67 1017.0
20260902031032 74 52 0.0 0.0 0.00 0.00 0.00 68 1017.1
20260902030003 74 52 0.0 0.0 0.00 0.00 0.00 69 1017.1
20260902025015 75 51 0.0 0.0 0.00 0.00 0.00 71 1017.2
20260902024031 75 52 0.0 0.0 0.00 0.00 0.00 71 1017.3
20260902023043 75 52 0.0 0.0 0.00 0.00 0.00 71 1017.3
20260902022103 75 52 0.0 0.0 0.00 0.00 0.00 70 1017.2
20260902021044 75 51 0.0 0.0 0.00 0.00 0.00 71 1017.3
20260902020049 75 52 0.0 0.0 0.00 0.00 0.00 72 1017.3
20260902015105 75 52 0.0 0.0 0.00 0.00 0.00 73 1017.1
20260902014046 76 52 0.0 0.0 0.00 0.00 0.00 74 1017.1
20260902013012 76 52 0.0 0.0 0.00 0.00 0.00 74 1017.0
20260902010901 77 52 0.0 0.0 0.00 0.00 0.00 75 1017.0
20260902005849 77 52 0.0 0.0 0.00 0.00 0.00 75 1016.9
20260902004824 78 52 0.0 0.0 0.00 0.00 0.00 75 1016.9
20260902003755 78 52 0.0 0.0 0.00 0.00 0.00 75 1016.9
20260902002724 78 52 0.0 0.0 0.00 0.00 0.00 75 1017.0
20260902001656 79 52 0.0 0.0 0.00 0.00 0.00 75 1016.9
20260902000644 79 101 0.0 0.0 0.00 0.00 0.00 75 1016.9
20260901235639 79 39 0.0 4.0 0.00 0.00 0.00 75 1016.8
20260901234631 80 61 0.0 3.0 0.00 0.00 0.00 75 1016.9
20260901233616 80 83 0.0 4.0 0.00 0.00 0.00 74 1016.9
20260901231529 81 56 0.0 4.0 0.00 0.00 0.00 73 1016.9
20260901230529 82 97 0.0 2.0 0.00 0.00 0.00 72 1016.9
20260901225502 82 105 0.0 5.0 0.00 0.00 0.00 71 1017.0
20260901224458 83 37 1.0 5.0 0.00 0.00 0.00 70 1017.0
20260901223426 83 63 0.0 3.0 0.00 0.00 0.00 70 1017.1
20260901222355 83 44 1.0 5.0 0.00 0.00 0.00 69 1016.9
20260901221400 84 102 1.0 7.0 0.00 0.00 0.00 69 1016.9
20260901215306 83 102 1.0 6.0 0.00 0.00 0.00 70 1016.9
20260901214325 83 96 1.0 6.0 0.00 0.00 0.00 70 1016.8
20260901213316 83 90 1.0 6.0 0.00 0.00 0.00 69 1016.7
20260901212322 83 84 1.0 6.0 0.00 0.00 0.00 70 1016.6
20260901211346 84 51 2.0 5.0 0.00 0.00 0.00 68 1016.5
20260901210358 84 102 1.0 5.0 0.00 0.00 0.00 65 1016.5
20260901205404 84 91 1.0 5.0 0.00 0.00 0.00 68 1016.5
20260901204339 85 100 2.0 7.0 0.00 0.00 0.00 67 1016.5
20260901203342 84 141 3.0 8.0 0.00 0.00 0.00 66 1016.6
20260901202340 84 80 2.0 8.0 0.00 0.00 0.00 67 1016.6
20260901201316 84 94 2.0 8.0 0.00 0.00 0.00 68 1016.7
20260901200308 84 98 3.0 9.0 0.00 0.00 0.00 68 1016.8
20260901195315 84 96 3.0 9.0 0.00 0.00 0.00 68 1016.8
20260901194254 84 101 3.0 8.0 0.00 0.00 0.00 70 1016.8
20260901193302 84 106 3.0 8.0 0.00 0.00 0.00 70 1016.9
20260901192306 84 56 3.0 8.0 0.00 0.00 0.00 69 1017.0
20260901191310 84 82 4.0 8.0 0.00 0.00 0.00 69 1017.2
20260901190326 84 97 5.0 10.0 0.00 0.00 0.00 69 1017.3
20260901185256 85 104 2.0 10.0 0.00 0.00 0.00 68 1017.3
20260901184234 85 95 3.0 9.0 0.00 0.00 0.00 68 1017.6
20260901183205 85 101 4.0 11.0 0.00 0.00 0.00 69 1017.6
20260901182145 84 98 4.0 11.0 0.00 0.00 0.00 69 1017.6
20260901181207 85 91 4.0 10.0 0.00 0.00 0.00 69 1017.6
20260901180155 85 80 4.0 12.0 0.00 0.00 0.00 68 1017.9
20260901175220 85 112 5.0 12.0 0.00 0.00 0.00 69 1017.8
20260901174222 85 121 5.0 11.0 0.00 0.00 0.00 68 1017.9
20260901173225 85 122 4.0 11.0 0.00 0.00 0.00 68 1017.9
20260901172212 85 110 6.0 13.0 0.00 0.00 0.00 69 1018.0
20260901171145 85 97 5.0 13.0 0.00 0.00 0.00 67 1017.9